Regional Weather Roundup
Issued by NWS Memphis, TN

Home | Current Version | Previous Version | Text Only | Print | Product List | Glossary On
Versions: 1 2 3 4 5 6 7 8 9 10 11 12 13 14 15 16 17 18 19 20 21 22 23 24 25 26 27 28 29 30 31 32 33 34 35 36 37 38 39 40 41 42 43 44 45 46 47 48 49 50
000
ASUS44 KMEG 171910
RWRMEG
MEMPHIS CWA HOURLY WEATHER ROUNDUP
NATIONAL WEATHER SERVICE MEMPHIS TN
200 PM CDT TUE OCT 17 2017

...WEST TENNESSEE...

CITY           SKY/WX    TMP DP  RH WIND       PRES   REMARKS
MEMPHIS INTL   PTSUNNY   69  44  40 CALM      30.26F
NWS MEMPHIS      N/A     68 N/A N/A MISG        N/A
JACKSON        SUNNY     68  43  40 VRB3      30.28F
COVINGTON      SUNNY     68  43  40 VRB3      30.28F
SOMERVILLE     SUNNY     68  43  40 CALM      30.26
BOLIVAR        SUNNY     68  45  42 VRB5      30.26F
LEXINGTON      SUNNY     66  41  39 CALM      30.27F
SELMER         SUNNY     68  45  42 CALM      30.27F
SAVANNAH       SUNNY     70  41  35 SE6       30.26F
UNION CITY     SUNNY     66  41  39 VRB3      30.27F
PARIS          SUNNY     64  41  42 CALM      30.28F
HUNTINGDON     SUNNY     66  41  39 SE5       30.28F


...EASTERN ARKANSAS...

CITY           SKY/WX    TMP DP  RH WIND       PRES   REMARKS
JONESBORO      SUNNY     69  44  40 CALM      30.27F
WEST MEMPHIS   MOSUNNY   69  42  37 VRB3      30.25F
BATESVILLE     MOSUNNY   67  41  38 VRB3      30.28F
NEWPORT        SUNNY     67  41  38 VRB3      30.28F
WALNUT RIDGE   PTSUNNY   65  39  38 VRB5      30.28F
BLYTHEVILLE    SUNNY     67  43  41 S6        30.28F
NW BLYTHEVILLE PTSUNNY   68  41  37 CALM      30.27F
SEARCY         SUNNY     68  43  40 N3        30.29F
STUTTGART      SUNNY     70  40  33 NE6       30.27F
PINE BLUFF     SUNNY     70  38  31 MISG      30.26F
MONTICELLO     SUNNY     72  40  31 VRB5      30.25F


...NORTH MISSISSIPPI...

CITY           SKY/WX    TMP DP  RH WIND       PRES   REMARKS
TUPELO         SUNNY     71  45  39 N3        30.26F
OXFORD         SUNNY     70  45  40 VRB3      30.27F
BATESVILLE     SUNNY     70  45  40 N3        30.26F
OLIVE BRANCH   PTSUNNY  N/A N/A N/A CALM      30.26F
TUNICA           N/A    N/A N/A N/A S3        30.27F
CLARKSDALE       N/A     70  48  46 CALM      30.27F
CORINTH        SUNNY     70  43  37 CALM      30.27F
GREENWOOD      SUNNY     74  50  42 NE8       30.23F
COLUMBUS       SUNNY     72  52  49 SE3       30.24F
STARKVILLE     SUNNY     72  48  43 NE7       30.26F
GOLDEN TRIANGL SUNNY     72  48  42 E6G17     30.25F


...SOUTHEAST MISSOURI...

CITY           SKY/WX    TMP DP  RH WIND       PRES   REMARKS
KENNETT        SUNNY     68  37  32 S5        30.27F
MALDEN         MOSUNNY   68  37  32 CALM      30.30F
WEST PLAINS    SUNNY     66  33  29 S10       30.28F
POPLAR BLUFF   MOSUNNY   64  40  41 VRB3      30.28F
CAPE GIRARDEAU SUNNY     65  40  39 S5        30.28F


...NORTHWEST ALABAMA...

CITY           SKY/WX    TMP DP  RH WIND       PRES   REMARKS
MUSCLE SHOALS  SUNNY     70  42  36 VRB6      30.28F


...MIDDLE TENNESSEE...

CITY           SKY/WX    TMP DP  RH WIND       PRES   REMARKS
NASHVILLE      MOSUNNY   68  36  30 CALM      30.30F
CLARKSVILLE    CLOUDY    66  39  37 CALM      30.29F
COLUMBIA       SUNNY     68  41  37 NW5       30.26F


...WESTERN KENTUCKY...

CITY           SKY/WX    TMP DP  RH WIND       PRES   REMARKS
PADUCAH        SUNNY     66  39  37 E5        30.27F
FORT CAMPBELL  MOSUNNY   65  38  37 SE5       30.28F


...CENTRAL ARKANSAS...

CITY           SKY/WX    TMP DP  RH WIND       PRES   REMARKS
LITTLE ROCK    MOSUNNY   68  41  37 VRB5      30.28F


SKY/WX REPORTED AS FAIR MEANS FEW OR NO CLOUDS BELOW
12 THOUSAND FEET.





USA.gov is the U.S. government's official web portal to all federal, state and local government web resources and services.